Location: Terre Du Lac
(37.9120°N, 90.6250°W)
Time: 12:55:30
(UTC-06:00)

HST - Visible Passes

Search period start: 21 November 2014 00:00
Search period end: 01 December 2014 00:00
Orbit: 545 x 550 km, 28.5° (Epoch: 20 November)

Date Brightness Start Highest point End Pass type
(mag) Time Alt. Az. Time Alt. Az. Time Alt. Az.
21 Nov 3.4 05:21:29 10° SSW 05:23:42 14° SSE 05:25:54 10° SE visible
22 Nov 3.2 05:13:27 10° SSW 05:16:05 16° SSE 05:18:42 10° SE visible
23 Nov 3.0 05:06:26 14° SSW 05:08:28 18° S 05:11:22 10° SE visible
24 Nov 2.8 04:59:35 18° SSW 05:00:51 20° S 05:03:56 10° SE visible
25 Nov 2.6 04:52:39 21° S 04:53:14 21° S 04:56:26 10° SE visible
26 Nov 2.6 04:45:40 22° S 04:45:40 22° S 04:48:52 10° SE visible
26 Nov 3.0 06:23:34 10° SW 06:26:25 18° S 06:29:17 10° SSE visible
27 Nov 2.8 04:38:39 21° SSE 04:38:39 21° SSE 04:41:15 10° SE visible
27 Nov 3.1 06:16:12 10° SW 06:18:46 16° SSW 06:21:20 10° SSE visible
28 Nov 3.0 04:31:36 19° SSE 04:31:36 19° SSE 04:33:34 10° SE visible
28 Nov 3.2 06:08:59 10° SW 06:11:06 14° SSW 06:13:13 10° SSE visible
29 Nov 3.3 04:24:32 16° SSE 04:24:32 16° SSE 04:25:50 10° SE visible
29 Nov 3.3 06:02:05 10° SW 06:03:24 11° SSW 06:04:43 10° S visible
30 Nov 3.6 04:17:28 12° SSE 04:17:28 12° SSE 04:18:01 10° SE visible
